User: anonymous   Login
Location: Stamford Observatory
(41.1241°N, 73.5498°W)
Time: 16:19:17
(UTC-04:00)
Language:

IRS-P3 - Orbit

View from above orbital plane
View from above orbital plane
View from above satellite
View from above satellite

Ground track
Ground track

The orbit data is extracted from the following two-line orbital elements,

1 23827U 96017A   16175.84889930  .00000027  00000-0  31904-4 0  9994
2 23827  98.6914 111.8793 0003602  12.9722 347.1548 14.22457788 51461
Epoch (UTC): 23 June 2016 20:22:24
Eccentricity: 0.0003602
inclination: 98.6914°
perigee height: 814 km
apogee height: 819 km
right ascension of ascending node: 111.8793°
argument of perigee: 12.9722°
revolutions per day: 14.22457788
mean anomaly at epoch: 347.1548°
orbit number at epoch: 5146

The dashed part of the orbit path shows where the satellite is in the earth's shadow,  

DLR